Siren, WI

6:35 AM CDT on September 26, 2016 (GMT -0500)
Burnett County

Weather History for KRZN - June, 2013

Change the Weather History Date:

Sunday, June 23, 2013

  Actual Average Record
Temperature  
Mean Temperature 70 °F -  
Max Temperature 81 °F - - ()
Min Temperature 60 °F - - ()
Cooling Degree Days 6    
Growing Degree Days 20 (Base 50)    
Moisture  
Dew Point 63 °F    
Average Humidity 79    
Maximum Humidity 97    
Minimum Humidity 52    
Precipitation  
Precipitation 0.24 in - - ()
Sea Level Pressure  
Sea Level Pressure 29.80 in    
Wind  
Wind Speed 6 mph (SSW)    
Max Wind Speed 17 mph    
Max Gust Speed 31 mph    
Visibility 10 miles    
Events Rain    
T = Trace of Precipitation, MM = Missing Value Source: NWS Daily Summary

Daily Weather History Graph

Daily Weather History Graph

Search for Another Location

Airport or City:

Trip Planner

Search our weather history database for the weather conditions in past years. The results will help you decide how hot, cold, wet, or windy it might be!

Date:

Astronomy

Jun. 23, 2013 Rise Set
Actual Time 5:19 AM CDT 9:03 PM CDT
Civil Twilight 4:41 AM CDT 9:41 PM CDT
Nautical Twilight 3:49 AM CDT 10:33 PM CDT
Astronomical Twilight 2:38 AM CDT 11:44 PM CDT
Moon 9:11 PM CDT (6/23) 5:41 AM CDT (6/23)
Length of Visible Light 17h 00m
Length of Day
15h 43m
Full, 100% of the Moon is Illuminated
Jun 23
Full
Jun 29
Last Quarter
Jul 8
New
Jul 15
First Quarter
Jul 22
Full

Hourly Weather History & Observations

Time (CDT) Temp. Heat Index Dew Point Humidity Pressure Visibility Wind Dir Wind Speed Gust Speed Precip Events Conditions
12:15 AM 60.8 °F - 59.7 °F 96% 29.90 in 10.0 mi NE 3.5 mph - N/A   Clear
12:35 AM 60.6 °F - 59.2 °F 95% 29.89 in 7.0 mi NE 3.5 mph - N/A   Scattered Clouds
12:55 AM 60.6 °F - 59.2 °F 95% 29.87 in 10.0 mi NE 4.6 mph - N/A   Overcast
1:15 AM 60.8 °F - 59.4 °F 95% 29.85 in 10.0 mi ENE 4.6 mph - N/A   Overcast
1:35 AM 60.8 °F - 59.4 °F 95% 29.84 in 10.0 mi Calm Calm - N/A   Overcast
1:55 AM 61.5 °F - 59.9 °F 94% 29.84 in 10.0 mi Calm Calm - N/A   Overcast
2:15 AM 61.2 °F - 59.9 °F 96% 29.85 in 10.0 mi Calm Calm - N/A   Scattered Clouds
2:35 AM 61.2 °F - 59.9 °F 96% 29.85 in 10.0 mi Calm Calm - N/A   Scattered Clouds
2:55 AM 60.6 °F - 59.2 °F 95% 29.85 in 7.0 mi Calm Calm - N/A   Scattered Clouds
3:15 AM 61.0 °F - 60.1 °F 97% 29.83 in 7.0 mi Calm Calm - N/A   Clear
3:35 AM 61.7 °F - 60.8 °F 97% 29.82 in 7.0 mi Calm Calm - N/A   Scattered Clouds
3:55 AM 60.8 °F - 59.9 °F 97% 29.81 in 5.0 mi Calm Calm - N/A   Mostly Cloudy
4:15 AM 60.8 °F - 59.9 °F 97% 29.79 in 7.0 mi Calm Calm - N/A   Scattered Clouds
4:35 AM 61.5 °F - 60.6 °F 97% 29.79 in 7.0 mi SE 3.5 mph - N/A   Scattered Clouds
4:55 AM 66.0 °F - 65.1 °F 97% 29.79 in 10.0 mi SSE 5.8 mph - 0.01 in   Mostly Cloudy
5:15 AM 67.1 °F - 65.3 °F 94% 29.79 in 10.0 mi Calm Calm - 0.08 in   Overcast
5:35 AM 67.1 °F - 65.5 °F 95% 29.76 in 10.0 mi SE 4.6 mph - 0.08 in   Scattered Clouds
5:55 AM 67.5 °F - 65.5 °F 93% 29.78 in 10.0 mi South 4.6 mph - 0.09 in   Light Drizzle
6:15 AM 68.0 °F - 65.7 °F 92% 29.79 in 10.0 mi SE 4.6 mph - N/A   Mostly Cloudy
6:35 AM 68.9 °F - 66.2 °F 91% 29.81 in 10.0 mi South 6.9 mph - N/A Rain Light Rain
6:55 AM 70.0 °F - 66.2 °F 88% 29.81 in 10.0 mi SSW 9.2 mph - N/A Rain Light Rain
7:15 AM 69.8 °F - 66.6 °F 89% 29.82 in 7.0 mi SSW 9.2 mph 21.9 mph 0.05 in Rain Light Rain
7:35 AM 68.9 °F - 66.4 °F 92% 29.80 in 7.0 mi South 11.5 mph 17.3 mph 0.07 in Rain Rain
7:55 AM 68.4 °F - 66.4 °F 93% 29.77 in 7.0 mi SSE 11.5 mph - 0.10 in Rain Light Rain
8:15 AM 68.0 °F - 65.7 °F 92% 29.76 in 7.0 mi South 10.4 mph - 0.03 in Rain Rain
8:35 AM 67.5 °F - 65.3 °F 93% 29.75 in 10.0 mi SSE 12.7 mph 19.6 mph 0.03 in Rain Light Rain
8:55 AM 68.0 °F - 65.7 °F 92% 29.74 in 10.0 mi SSE 10.4 mph 17.3 mph 0.03 in   Scattered Clouds
9:15 AM 68.7 °F - 65.8 °F 90% 29.72 in 10.0 mi SSE 11.5 mph 17.3 mph N/A   Clear
9:35 AM 69.1 °F - 65.8 °F 89% 29.70 in 10.0 mi SSE 10.4 mph 18.4 mph N/A   Clear
9:55 AM 69.8 °F - 65.8 °F 87% 29.70 in 10.0 mi South 15.0 mph 20.7 mph N/A   Clear
10:15 AM 71.2 °F - 65.7 °F 82% 29.70 in 10.0 mi South 12.7 mph 19.6 mph 0.01 in   Clear
10:35 AM 72.7 °F - 65.3 °F 78% 29.72 in 10.0 mi South 9.2 mph - 0.01 in   Clear
10:55 AM 71.8 °F - 65.7 °F 81% 29.74 in 10.0 mi SW 13.8 mph 20.7 mph 0.01 in   Mostly Cloudy
11:15 AM 72.0 °F - 66.4 °F 83% 29.75 in 10.0 mi SSW 10.4 mph 17.3 mph N/A   Overcast
11:35 AM 73.6 °F - 66.7 °F 79% 29.74 in 10.0 mi SSW 11.5 mph 21.9 mph N/A   Overcast
11:55 AM 73.8 °F - 67.1 °F 80% 29.75 in 10.0 mi SSW 13.8 mph 23.0 mph N/A   Overcast
12:15 PM 74.1 °F - 67.3 °F 79% 29.75 in 10.0 mi WSW 10.4 mph 18.4 mph N/A   Overcast
12:35 PM 76.6 °F - 66.9 °F 72% 29.76 in 10.0 mi SW 17.3 mph 24.2 mph N/A   Mostly Cloudy
12:55 PM 77.5 °F - 65.8 °F 67% 29.76 in 10.0 mi SW 17.3 mph 26.5 mph N/A   Mostly Cloudy
1:15 PM 75.9 °F - 64.6 °F 68% 29.78 in 10.0 mi SW 17.3 mph 31.1 mph N/A   Mostly Cloudy
1:35 PM 77.7 °F - 65.5 °F 66% 29.77 in 10.0 mi WSW 16.1 mph 24.2 mph N/A   Mostly Cloudy
1:55 PM 77.0 °F - 64.8 °F 66% 29.77 in 10.0 mi SW 10.4 mph 21.9 mph N/A   Scattered Clouds
2:15 PM 79.0 °F - 64.8 °F 62% 29.77 in 10.0 mi WSW 13.8 mph 20.7 mph N/A   Scattered Clouds
2:35 PM 79.7 °F - 63.7 °F 58% 29.77 in 10.0 mi SW 13.8 mph 20.7 mph N/A   Scattered Clouds
2:55 PM 80.2 °F 81.8 °F 63.5 °F 57% 29.78 in 10.0 mi WSW 13.8 mph 23.0 mph N/A   Scattered Clouds
3:15 PM 80.1 °F 81.8 °F 64.4 °F 59% 29.78 in 10.0 mi SW 12.7 mph - N/A   Mostly Cloudy
3:35 PM 80.4 °F 81.8 °F 63.3 °F 56% 29.78 in 10.0 mi SW 11.5 mph 23.0 mph N/A   Mostly Cloudy
3:55 PM 79.5 °F - 63.9 °F 59% 29.78 in 10.0 mi SW 9.2 mph 20.7 mph N/A   Mostly Cloudy
4:15 PM 81.1 °F 82.3 °F 62.6 °F 53% 29.78 in 10.0 mi WSW 11.5 mph 23.0 mph N/A   Scattered Clouds
4:35 PM 81.5 °F 82.7 °F 62.8 °F 53% 29.78 in 10.0 mi WSW 15.0 mph 19.6 mph N/A   Scattered Clouds
4:55 PM 81.5 °F 82.5 °F 62.2 °F 52% 29.78 in 10.0 mi West 13.8 mph 20.7 mph N/A   Scattered Clouds
5:15 PM 81.5 °F 82.5 °F 62.4 °F 52% 29.78 in 10.0 mi WSW 11.5 mph 18.4 mph N/A   Scattered Clouds
5:35 PM 81.3 °F 82.5 °F 62.6 °F 53% 29.78 in 10.0 mi SW 13.8 mph 18.4 mph N/A   Scattered Clouds
5:55 PM 80.6 °F 81.8 °F 62.4 °F 54% 29.79 in 10.0 mi SW 11.5 mph - N/A   Scattered Clouds
6:15 PM 79.3 °F - 62.6 °F 56% 29.79 in 10.0 mi SW 10.4 mph - N/A   Scattered Clouds
6:35 PM 79.3 °F - 62.2 °F 56% 29.80 in 10.0 mi WSW 9.2 mph 18.4 mph N/A   Scattered Clouds
6:55 PM 80.1 °F 81.1 °F 61.3 °F 53% 29.81 in 10.0 mi WSW 9.2 mph - N/A   Scattered Clouds
7:15 PM 79.7 °F - 61.2 °F 53% 29.81 in 10.0 mi WSW 11.5 mph - N/A   Scattered Clouds
7:35 PM 79.0 °F - 62.1 °F 56% 29.82 in 10.0 mi WSW 8.1 mph - N/A   Clear
7:55 PM 77.2 °F - 61.7 °F 59% 29.83 in 10.0 mi West 8.1 mph - N/A   Clear
8:15 PM 76.1 °F - 60.8 °F 59% 29.83 in 10.0 mi West 6.9 mph - N/A   Clear
8:35 PM 74.5 °F - 60.8 °F 62% 29.83 in 10.0 mi West 5.8 mph - N/A   Clear
8:55 PM 72.7 °F - 60.8 °F 66% 29.84 in 10.0 mi WSW 3.5 mph - N/A   Clear
9:15 PM 71.8 °F - 61.0 °F 69% 29.85 in 10.0 mi Calm Calm - N/A   Clear
9:35 PM 68.9 °F - 61.3 °F 77% 29.85 in 10.0 mi SSW 3.5 mph - N/A   Clear
9:55 PM 66.4 °F - 61.5 °F 84% 29.86 in 10.0 mi SSW 4.6 mph - N/A   Clear
10:15 PM 66.9 °F - 62.2 °F 85% 29.87 in 10.0 mi South 3.5 mph - N/A   Clear
10:35 PM 65.7 °F - 62.6 °F 90% 29.87 in 10.0 mi South 3.5 mph - N/A   Clear
10:55 PM 64.9 °F - 62.4 °F 92% 29.88 in 10.0 mi SSW 3.5 mph - N/A   Clear
11:15 PM 65.1 °F - 62.1 °F 90% 29.88 in 10.0 mi SSW 4.6 mph - N/A   Clear
11:35 PM 64.8 °F - 62.2 °F 92% 29.88 in 10.0 mi SSW 3.5 mph - N/A   Clear
11:55 PM 64.4 °F - 61.7 °F 91% 29.88 in 10.0 mi SSW 3.5 mph - N/A   Clear